Volver al catálogo

FENGYUN 1C DEB

ActivoPO
NORAD 30419·DEBRIS·🇨🇳 China

Lanzado May 10, 1999 desde Taiyuan Satellite Launch Center

Loading…

Próximos Pases (próximas 24 horas)

TLE

ActualizadoSource: Space-Track

Época: Sep 13, 2026, 04:11 UTC

1 30419U 99025AEJ 26256.17459640  .00000634  00000-0  32466-3 0  9996
2 30419  99.2636 219.6299 0051774 330.9403  42.8468 14.18664501 12403

Sigue FENGYUN 1C DEB en tiempo real con AllMySat

Download on the App Store